Home > Weather > Norfolk > Past weeks

Flag for USA Weather for the Past 2 Weeks in Norfolk, Virginia, USA

Now
54 °F

Mostly cloudy.


Feels Like: 53 °F
Forecast: 55 / 75 °F
Wind: 5 mph from Southeast

Location: Norfolk Naval Air Station

Current Time: May 1, 2016 at 3:23:01 AM

Latest Report: May 1, 2016 at 1:59 AM


Visibility: 10 mi

Pressure: 30.16 "Hg

Humidity: 86%

Dew Point: 50 °F

Location of NorfolkLocation

Historic Weather in Norfolk — Graph

°F

Norfolk Temperature Yesterday

Maximum temperature yesterday: 60 °F (at 2:59 PM)
Minimum temperature yesterday: 54 °F (at 10:59 PM)
Average temperature yesterday: 56 °F

High & Low Weather Summary for the Past Weeks

 TemperatureHumidityPressure
High86 °F (Apr 26, 4:59 PM)96% (Apr 23, 4:59 AM)30.45 "Hg (Apr 23, 4:59 AM)
Low42 °F (Apr 16, 4:59 AM)19% (Apr 18, 2:59 PM)29.75 "Hg (Apr 26, 6:59 PM)
Average62 °F67%30.09 "Hg
* Reported Apr 16 1:59 AM — May 1 1:59 AM, Norfolk, Weather by CustomWeather, © 2016

Note: Actual official high and low records may vary slightly from our data, if they occured in-between our weather recording intervals... More about our weather records

Advertising

Norfolk Weather History for the Previous 24 Hours

Scroll right to see more
 ConditionsComfort  
Time TempWeatherWind HumidityBarometerVisibility
1:59 AM
Sun, May 1
54 °FMostly cloudy.5 mph86%30.16 "Hg10 mi
12:59 AM55 °FOvercast.No wind87%30.21 "Hg10 mi
11:59 PM
Sat, Apr 30
55 °FPartly cloudy.7 mph83%30.21 "Hg9 mi
10:59 PM54 °FPassing clouds.8 mph86%30.21 "Hg9 mi
9:59 PM55 °FPassing clouds.8 mph83%30.22 "Hg9 mi
8:59 PM55 °FPartly cloudy.8 mph83%30.22 "Hg9 mi
7:59 PM55 °FBroken clouds.9 mph83%30.22 "Hg8 mi
6:59 PM56 °FBroken clouds.9 mph84%30.21 "Hg8 mi
5:59 PM58 °FBroken clouds.13 mph78%30.21 "Hg10 mi
4:59 PM60 °FMostly cloudy.9 mph67%30.21 "Hg10 mi
3:59 PM59 °FMostly cloudy.9 mph69%30.19 "Hg10 mi
2:59 PM60 °FMostly cloudy.6 mph69%30.20 "Hg10 mi
1:59 PM59 °FOvercast.10 mph72%30.21 "Hg10 mi
12:59 PM57 °FOvercast.13 mph74%30.21 "Hg10 mi
11:59 AM58 °FMore clouds than sun.9 mph78%30.20 "Hg9 mi
10:59 AM56 °FOvercast.12 mph84%30.19 "Hg9 mi
9:59 AM56 °FLow clouds.10 mph84%30.19 "Hg8 mi
8:59 AM56 °FMostly cloudy.9 mph87%30.18 "Hg10 mi
7:59 AM56 °FOvercast.8 mph84%30.16 "Hg10 mi
6:59 AM55 °FLow clouds.7 mph90%30.15 "Hg10 mi
5:59 AM56 °FOvercast.7 mph87%30.13 "Hg10 mi
4:59 AM56 °FOvercast.6 mph87%30.10 "Hg10 mi
3:59 AM56 °FMostly cloudy.9 mph87%30.09 "Hg10 mi
Weather by CustomWeather, © 2016

See weather overviewHow to use our weather pages